• In Moldova, Republic
  • List of Countries
  • For 7 days
  • Water Temperature
  • Satellite Maps
  • Weather Map
  • Weather Widgets
  • user-avatar
    Login

    Hourly Weather Shusha

    Today, 28 March, Tuesday

    Time Temperature Precipitation Wind Pressure Humidity
    00:00 +5°C° 0 mm 2 mps 655 mmHg 61%
    01:00 +4°C° 0 mm 2 mps 654 mmHg 64%
    02:00 +4°C° 0 mm 2 mps 654 mmHg 66%
    03:00 +5°C° 0 mm 1 mps 654 mmHg 68%
    04:00 +3°C° 0 mm 2 mps 654 mmHg 69%
    05:00 +3°C° 0 mm 2 mps 654 mmHg 70%
    06:00 +3°C° 0 mm 2 mps 654 mmHg 70%
    07:00 +5°C° 0 mm 2 mps 655 mmHg 65%
    08:00 +7°C° 0 mm 3 mps 656 mmHg 59%
    09:00 +9°C° 0 mm 3 mps 657 mmHg 53%
    10:00 +8°C° 0.1 mm 4 mps 657 mmHg 52%
    11:00 +8°C° 0.1 mm 4 mps 657 mmHg 52%
    12:00 +9°C° 0.1 mm 5 mps 657 mmHg 51%
    13:00 +8°C° 0.2 mm 4 mps 657 mmHg 53%
    14:00 +8°C° 0.2 mm 4 mps 657 mmHg 55%
    15:00 +7°C° 0.2 mm 4 mps 657 mmHg 57%
    16:00 +7°C° 0.2 mm 3 mps 657 mmHg 61%
    17:00 +6°C° 0.2 mm 2 mps 657 mmHg 65%
    18:00 +5°C° 0.2 mm 2 mps 657 mmHg 69%
    19:00 +5°C° 0 mm 1 mps 657 mmHg 71%
    20:00 +5°C° 0 mm 1 mps 658 mmHg 74%
    21:00 +4°C° 0 mm 1 mps 658 mmHg 76%
    22:00 +3°C° 0 mm 1 mps 658 mmHg 77%
    23:00 +2°C° 0 mm 1 mps 658 mmHg 78%

    Tomorrow, 29 March, Wednesday

    Time Temperature Precipitation Wind Pressure Humidity
    00:00 +2°C° 0 mm 1 mps 657 mmHg 79%
    01:00 +2°C° 0 mm 1 mps 657 mmHg 79%
    02:00 +1°C° 0 mm 1 mps 657 mmHg 80%
    03:00 +1°C° 0 mm 1 mps 657 mmHg 80%
    04:00 +1°C° 0 mm 1 mps 657 mmHg 79%
    05:00 +1°C° 0 mm 1 mps 657 mmHg 78%
    06:00 +1°C° 0 mm 1 mps 657 mmHg 78%
    07:00 +4°C° 0 mm 1 mps 658 mmHg 68%
    08:00 +5°C° 0 mm 2 mps 659 mmHg 58%
    09:00 +8°C° 0 mm 2 mps 659 mmHg 48%
    10:00 +9°C° 0 mm 2 mps 660 mmHg 45%
    11:00 +10°C° 0 mm 2 mps 660 mmHg 41%
    12:00 +12°C° 0 mm 3 mps 660 mmHg 38%
    13:00 +12°C° 0 mm 3 mps 660 mmHg 38%
    14:00 +12°C° 0 mm 3 mps 660 mmHg 38%
    15:00 +12°C° 0 mm 3 mps 660 mmHg 37%
    16:00 +10°C° 0 mm 2 mps 660 mmHg 45%
    17:00 +8°C° 0 mm 2 mps 659 mmHg 52%
    18:00 +7°C° 0 mm 1 mps 659 mmHg 60%
    19:00 +6°C° 0 mm 1 mps 660 mmHg 64%
    20:00 +5°C° 0 mm 1 mps 660 mmHg 69%
    21:00 +3°C° 0 mm 1 mps 660 mmHg 73%
    22:00 +3°C° 0 mm 1 mps 661 mmHg 76%
    23:00 +2°C° 0 mm 1 mps 661 mmHg 79%

    Day after tomorrow, 30 March, Thursday

    Time Temperature Precipitation Wind Pressure Humidity
    00:00 +2°C° 0 mm 1 mps 661 mmHg 81%
    01:00 +1°C° 0 mm 1 mps 661 mmHg 83%
    02:00 +1°C° 0 mm 1 mps 661 mmHg 85%
    03:00 +1°C° 0 mm 1 mps 661 mmHg 88%
    04:00 0°C° 0 mm 1 mps 661 mmHg 88%
    05:00 0°C° 0 mm 1 mps 661 mmHg 88%
    06:00 0°C° 0 mm 1 mps 661 mmHg 88%
    07:00 +3°C° 0 mm 1 mps 662 mmHg 78%
    08:00 +5°C° 0 mm 1 mps 663 mmHg 69%
    09:00 +6°C° 0 mm 2 mps 663 mmHg 59%
    10:00 +7°C° 0 mm 2 mps 663 mmHg 56%
    11:00 +9°C° 0 mm 2 mps 663 mmHg 53%
    12:00 +10°C° 0 mm 2 mps 663 mmHg 49%
    13:00 +10°C° 0 mm 2 mps 662 mmHg 50%
    14:00 +10°C° 0 mm 2 mps 661 mmHg 51%
    15:00 +10°C° 0 mm 2 mps 661 mmHg 51%
    16:00 +9°C° 0 mm 2 mps 660 mmHg 60%
    17:00 +8°C° 0 mm 1 mps 660 mmHg 68%
    18:00 +6°C° 0 mm 1 mps 659 mmHg 77%
    19:00 +5°C° 0 mm 1 mps 659 mmHg 79%
    20:00 +4°C° 0 mm 1 mps 659 mmHg 81%
    21:00 +4°C° 0 mm 1 mps 659 mmHg 82%
    22:00 +3°C° 0 mm 1 mps 659 mmHg 80%
    23:00 +3°C° 0 mm 1 mps 659 mmHg 77%

    31 March, Friday

    Time Temperature Precipitation Wind Pressure Humidity
    00:00 +3°C° 0 mm 1 mps 659 mmHg 75%
    01:00 +2°C° 0 mm 2 mps 658 mmHg 73%
    02:00 +2°C° 0 mm 2 mps 658 mmHg 70%
    03:00 +2°C° 0 mm 2 mps 658 mmHg 68%
    04:00 +2°C° 0 mm 2 mps 658 mmHg 66%
    05:00 +2°C° 0 mm 2 mps 658 mmHg 63%
    06:00 +2°C° 0 mm 2 mps 658 mmHg 61%
    07:00 +5°C° 0 mm 2 mps 659 mmHg 53%
    08:00 +9°C° 0 mm 1 mps 660 mmHg 45%
    09:00 +12°C° 0 mm 1 mps 661 mmHg 37%
    10:00 +13°C° 0 mm 2 mps 661 mmHg 36%
    11:00 +14°C° 0 mm 2 mps 661 mmHg 35%
    12:00 +15°C° 0 mm 2 mps 661 mmHg 34%
    13:00 +14°C° 0 mm 3 mps 661 mmHg 35%
    14:00 +14°C° 0 mm 3 mps 661 mmHg 36%
    15:00 +14°C° 0 mm 3 mps 660 mmHg 38%
    16:00 +13°C° 0 mm 2 mps 660 mmHg 45%
    17:00 +10°C° 0 mm 2 mps 660 mmHg 52%
    18:00 +8°C° 0 mm 2 mps 660 mmHg 59%
    19:00 +7°C° 0 mm 2 mps 660 mmHg 64%
    20:00 +5°C° 0 mm 3 mps 661 mmHg 68%
    21:00 +4°C° 0 mm 3 mps 661 mmHg 73%
    22:00 +4°C° 0.3 mm 3 mps 661 mmHg 77%
    23:00 +3°C° 0.3 mm 3 mps 661 mmHg 81%

    1 April, Saturday

    Time Temperature Precipitation Wind Pressure Humidity
    00:00 +3°C° 0.3 mm 3 mps 661 mmHg 85%
    01:00 +2°C° 0.5 mm 3 mps 660 mmHg 87%
    02:00 +2°C° 0.5 mm 3 mps 660 mmHg 90%
    03:00 +1°C° 0.5 mm 3 mps 660 mmHg 92%
    04:00 +1°C° 0.2 mm 3 mps 660 mmHg 91%
    05:00 0°C° 0.2 mm 3 mps 660 mmHg 91%
    06:00 0°C° 0.2 mm 3 mps 660 mmHg 91%
    07:00 0°C° 0.2 mm 3 mps 660 mmHg 88%
    08:00 +1°C° 0.2 mm 3 mps 660 mmHg 85%
    09:00 +1°C° 0.2 mm 3 mps 660 mmHg 83%
    10:00 +1°C° 0.4 mm 3 mps 660 mmHg 80%
    11:00 +3°C° 0.4 mm 2 mps 660 mmHg 78%
    12:00 +3°C° 0.4 mm 2 mps 660 mmHg 76%
    13:00 +3°C° 0.2 mm 2 mps 659 mmHg 75%
    14:00 +4°C° 0.2 mm 2 mps 659 mmHg 74%
    15:00 +4°C° 0.2 mm 2 mps 659 mmHg 73%
    16:00 +4°C° 0.1 mm 2 mps 659 mmHg 77%
    17:00 +3°C° 0.1 mm 2 mps 659 mmHg 80%
    18:00 +3°C° 0.1 mm 1 mps 659 mmHg 84%
    19:00 +3°C° 0.1 mm 1 mps 659 mmHg 85%
    20:00 +2°C° 0.1 mm 1 mps 659 mmHg 87%
    21:00 +2°C° 0.1 mm 1 mps 659 mmHg 89%
    22:00 +2°C° 0.1 mm 1 mps 659 mmHg 90%
    23:00 +1°C° 0.1 mm 1 mps 659 mmHg 91%

    2 April, Sunday

    Time Temperature Precipitation Wind Pressure Humidity
    00:00 +1°C° 0.1 mm 1 mps 659 mmHg 93%
    01:00 +1°C° 0.4 mm 1 mps 659 mmHg 92%
    02:00 +1°C° 0.4 mm 1 mps 659 mmHg 92%
    03:00 +1°C° 0.4 mm 1 mps 659 mmHg 92%
    04:00 +1°C° 0.4 mm 1 mps 659 mmHg 92%
    05:00 0°C° 0.4 mm 1 mps 659 mmHg 92%
    06:00 -2°C° 0.4 mm 2 mps 659 mmHg 92%
    07:00 -1°C° 0.8 mm 2 mps 660 mmHg 91%
    08:00 -1°C° 0.8 mm 2 mps 660 mmHg 89%
    09:00 -1°C° 0.8 mm 2 mps 661 mmHg 87%
    10:00 -1°C° 0.7 mm 2 mps 661 mmHg 85%
    11:00 0°C° 0.7 mm 3 mps 662 mmHg 83%
    12:00 0°C° 0.7 mm 3 mps 662 mmHg 82%
    13:00 0°C° 0.5 mm 3 mps 662 mmHg 81%
    14:00 +1°C° 0.5 mm 3 mps 662 mmHg 80%
    15:00 +1°C° 0.5 mm 3 mps 663 mmHg 79%
    16:00 +1°C° 0.2 mm 2 mps 663 mmHg 81%
    17:00 +1°C° 0.2 mm 2 mps 663 mmHg 84%
    18:00 -1°C° 0.2 mm 2 mps 663 mmHg 87%
    19:00 -2°C° 0 mm 2 mps 664 mmHg 86%
    20:00 -2°C° 0 mm 2 mps 664 mmHg 86%
    21:00 -1°C° 0 mm 1 mps 664 mmHg 86%
    22:00 -1°C° 0 mm 1 mps 664 mmHg 86%
    23:00 -2°C° 0 mm 1 mps 664 mmHg 85%
    Show more